1999 YA   

Epoch 1999 Dec. 28.0 TT = JDT 2451540.5                 Nakano

M  49.30502              (2000.0)            P               Q

n   0.45412738     Peri.  265.53009     +0.77356336     -0.22087084

a   1.6762968      Node   106.28928     +0.37830607     +0.91291250

e   0.3391104      Incl.   38.23030     -0.50841345     +0.34323000

P   2.17           H   17.9           G   0.15           U   *

Residuals in seconds of arc 

991216 704  0.7+  0.4+    991219 704  0.1-  0.2-    991229 402  0.6-  0.1-  

991216 704  0.3+  0.0     991219 704  1.2-  1.0-    991229 402  0.4-  1.8+  

991216 704  0.5+  0.6+    991219 704  0.1-  0.4-    991229 402  0.2+  0.6+  

991216 704  0.8+  0.4+    991219 704  0.1+  0.1+    991230 413  0.1+  0.1-  

991218 704  0.1+  0.2-    991220 704  0.3+  0.4-    991230 413  0.0   0.2+  

991218 704  0.4-  0.4+    991220 704  0.9-  0.5-    991230 587  0.8+  0.1-  

991218 704  0.1+  0.3-    991220 704  0.2-  1.0-    991230 587  0.2+  0.3-  

991218 704  0.4+  1.0+    991220 704  0.3-  0.9-    000104 402  0.0   0.4-  

991218 651  0.3-  0.3+    991227 402  0.5+  1.1-    000104 402  0.2-  0.2-  

991218 651  0.6-  0.0     991227 402  0.1-  1.3+                            

991218 651  0.1-  0.5+    991227 402  0.4+  0.3-                            

 

NAKANO

         **** Don't distribute anyone except personal use only ****

                (C) Copyright 2000 OAA/ComputingSection

write mail from CFAD0::NAKANO on 2000-01-05 23:21:21(JST).





1999 YA   

Epoch 1999 Dec. 28.0 TT = JDT 2451540.5                 Nakano

M  48.55155              (2000.0)            P               Q

n   0.44829261     Peri.  266.16803     +0.76681952     -0.22932177

a   1.6908107      Node   106.26356     +0.38922499     +0.90881172

e   0.3416357      Incl.   38.64469     -0.51038391     +0.34852945

P   2.20           H   17.8           G   0.15           U   *

Residuals in seconds of arc 

991216 704  0.2+  0.0     991218 651  0.5-  0.0     991220 704  0.0   0.4-  

991216 704  0.2-  0.4-    991218 651  0.1-  0.5+    991227 402  0.5+  0.9-  

991216 704  0.1+  0.1+    991219 704  0.1+  0.0     991227 402  0.1-  1.6+  

991216 704  0.3+  0.1-    991219 704  1.0-  0.7-    991227 402  0.4+  0.0   

991218 704  0.2+  0.3-    991219 704  0.1+  0.1-    991229 402  0.5-  1.0-  

991218 704  0.3-  0.4+    991219 704  0.2+  0.4+    991229 402  0.3-  0.9+  

991218 704  0.2+  0.3-    991220 704  0.7+  0.0     991229 402  0.3+  0.3-  

991218 704  0.5+  1.0+    991220 704  0.6-  0.0                             

991218 651  0.3-  0.3+    991220 704  0.1+  0.6-                            

 

NAKANO

         **** Don't distribute anyone except personal use only ****

                (C) Copyright 1999 OAA/ComputingSection

write mail from CFAD0::NAKANO on 1999-12-31 22:22:03(JST).

 



 1999 YA   

Epoch 1999 Dec. 28.0 TT = JDT 2451540.5                 Nakano

M  48.29710              (2000.0)            P               Q

n   0.44633639     Peri.  266.38361     +0.76454150     -0.23215282

a   1.6957475      Node   106.25512     +0.39289568     +0.90739473

e   0.3425005      Incl.   38.78171     -0.51098853     +0.35034250

P   2.21           H   17.8           G   0.15           U   *

Residuals in seconds of arc 

991216 704  0.2+  0.1-    991218 651  0.2-  0.3+    991220 704  0.5-  0.0   

991216 704  0.3-  0.5-    991218 651  0.5-  0.0     991220 704  0.1+  0.5-  

991216 704  0.0   0.1+    991218 651  0.0   0.5+    991220 704  0.1+  0.3-  

991216 704  0.3+  0.1-    991219 704  0.2+  0.1+    991227 402  0.2+  1.1-  

991218 704  0.3+  0.3-    991219 704  1.0-  0.7-    991227 402  0.4-  1.4+  

991218 704  0.2-  0.4+    991219 704  0.1+  0.1-    991227 402  0.2+  0.3-  

991218 704  0.2+  0.3-    991219 704  0.3+  0.4+                            

991218 704  0.5+  1.0+    991220 704  0.7+  0.1+                            



NAKANO

         **** Don't distribute anyone except personal use only ****

                (C) Copyright 1999 OAA/ComputingSection

write mail from CFAD0::NAKANO on 1999-12-28 20:49:27(JST).

 





–ß‚è‚Ü‚·B